Hourly Data Report for October 19, 2014

All times are specified in Local Standard Time (LST). Add 1 hour to adjust for Daylight Saving Time where and when it is observed.

CHARLOTTETOWN A
PRINCE EDWARD ISLAND

46°17'21.000" N
63°07'09.000" W
48.50 m
8300301
71706
YYG

Download Data

Hourly Data (October 2014)
Hourly Data Report for October 19, 2014
Temp Definition
°C
Dew Point Temp Definition
°C
Rel Hum Definition
%
Wind Dir Definition
10's deg

Wind Spd Definition
km/h
Visibility Definition
km
Stn Press Definition
kPa
Hmdx Definition


Wind Chill Definition


Weather Definition


TIME
00:00 Legend Double Dagger 13.2 12.4 95 20 14 22.5 99.29     LegendNANA
01:00 Legend Double Dagger 12.5 12.0 97 20 9 24.1 99.27     LegendNANA
02:00 Legend Double Dagger 12.0 11.5 97 19 9 16.1 99.27     Mainly Clear
03:00 Legend Double Dagger 12.0 11.7 98 19 13 12.9 99.25     LegendNANA
04:00 Legend Double Dagger 12.5 12.2 98 20 15 11.3 99.29     LegendNANA
05:00 Legend Double Dagger 13.6 13.0 96 20 18 16.1 99.28     Mostly Cloudy
06:00 Legend Double Dagger 13.8 13.0 95 19 15 16.1 99.34     LegendNANA
07:00 Legend Double Dagger 14.2 13.3 94 18 20 24.1 99.40     LegendNANA
08:00 Legend Double Dagger 14.8 13.4 91 19 21 24.1 99.46     Mostly Cloudy
09:00 Legend Double Dagger 15.4 13.1 86 21 24 24.1 99.49     LegendNANA
10:00 Legend Double Dagger 15.5 13.4 87 20 23 24.1 99.52     LegendNANA
11:00 Legend Double Dagger 15.7 13.0 84 25 17 24.1 99.57     Mostly Cloudy
12:00 Legend Double Dagger 16.4 10.8 69 24 21 24.1 99.62     LegendNANA
13:00 Legend Double Dagger 16.1 10.3 68 24 16 24.1 99.62     LegendNANA
14:00 Legend Double Dagger 15.8 10.4 70 25 9 24.1 99.59     Cloudy
15:00 Legend Double Dagger 15.3 10.7 74 26 9 24.1 99.68     LegendNANA
16:00 Legend Double Dagger 12.7 10.8 88 1 14 24.1 99.71     LegendNANA
17:00 Legend Double Dagger 11.4 9.5 88 1 12 24.1 99.76     Rain Showers
18:00 Legend Double Dagger 10.8 9.1 89 36 10 24.1 99.79     LegendNANA
19:00 Legend Double Dagger 10.5 8.8 89 1 11 24.1 99.82     LegendNANA
20:00 Legend Double Dagger 10.4 8.5 88 1 12 24.1 99.77     Cloudy
21:00 Legend Double Dagger 9.9 8.7 92 1 13 24.1 99.72     Rain Showers
22:00 Legend Double Dagger 9.2 8.3 94 1 22 24.1 99.68     LegendNANA
23:00 Legend Double Dagger 7.8 6.6 92 35 19 24.1 99.57     Rain Showers

Notes on Data Quality.

Legend

  • E = Estimated
  • M = Missing
  • NA = Not Available
  • ‡ = Partner data that is not subject to review by the National Climate Archives
Date modified: